Regional Weather Roundup
Issued by NWS

Home | Current Version | Previous Version | Text Only | Print | Product List | Glossary On
Versions: 1 2 3 4 5 6 7 8 9 10 11 12 13 14 15 16 17 18 19 20 21 22 23 24 25 26 27 28 29 30 31 32 33 34 35 36 37 38 39 40 41 42 43 44 45 46 47 48 49 50
312
ASUS43 KMPX 302110
RWRMN
WEATHER ROUNDUP FOR MINNESOTA
NATIONAL WEATHER SERVICE TWIN CITIES/CHANHASSEN MN
400 PM CDT THU MAR 30 2017


NOTE: "FAIR" INDICATES FEW OR NO CLOUDS BELOW 12,000 FEET WITH NO
SIGNIFICANT WEATHER AND/OR OBSTRUCTIONS TO VISIBILITY. N/A MEANS
CURRENT SKY AND/OR WEATHER CONDITIONS ARE NOT AVAILABLE.

MNZ060>063-068>070-302200-
   Twin Cities Metro

CITY           SKY/WX    TMP DP  RH WIND       PRES   REMARKS
TWIN CITIES    CLOUDY    47  34  60 E13       29.82F
ST PAUL        CLOUDY    47  36  65 E12       29.83F
CRYSTAL        CLOUDY    48  33  56 E12       29.81F
BLAINE         CLOUDY    50  36  57 E12G17    29.82F
LAKEVILLE      DRIZZLE   41  37  87 NE9       29.81F
EDEN PRAIRIE   CLOUDY    47  35  63 E9        29.81F
SOUTH ST PAUL  CLOUDY    46  34  64 NE9       29.82F
LAKE ELMO      CLOUDY    46  36  66 NE13      29.83F
$$
MNZ001>005-007-008-013>017-022>024-027-028-302200-
   Northwest Minnesota

CITY           SKY/WX    TMP DP  RH WIND       PRES   REMARKS
BEMIDJI        SUNNY     53  27  36 E9        29.87S
HALLOCK        CLOUDY    52  45  76 S12       29.87F
ROSEAU         SUNNY     54  37  54 S3G9      29.88F
WARROAD        MOSUNNY   46  39  76 NE7       29.89F
THIEF RVR FALL MOSUNNY   51  37  58 VRB5      29.88F
CROOKSTON      SUNNY     52  39  62 SW3       29.87F
FOSSTON        SUNNY     57  39  51 CALM      29.86F
DETROIT LAKES  SUNNY     55  28  35 SE9       29.85S
MOORHEAD       SUNNY     54  34  47 CALM      29.85F
PARK RAPIDS    SUNNY     55  24  30 E12       29.84F
MAHNOMEN       FAIR      54  34  45 E6        29.84F
$$
MNZ006-009>011-018-025>026-302200-
   North Central Minnesota

CITY           SKY/WX    TMP DP  RH WIND       PRES   REMARKS
BAUDETTE       MOSUNNY   56  32  40 S3        29.87F
FLAG ISLAND    PTSUNNY   46  36  66 CALM      29.89F
INTL FALLS     SUNNY     54  32  43 E7        29.89F
WASKISH        SUNNY     52  36  54 W7        29.87F
BIG FORK       SUNNY     55  30  38 NE6       29.87S
LONGVILLE      SUNNY     54  28  37 SE9       29.85F
GRAND RAPIDS   SUNNY     53  26  35 E8        29.88F
CRANE LAKE     SUNNY     54  27  35 CALM      29.91S
ORR            SUNNY     55  21  26 CALM      29.86F
COOK           SUNNY     54  28  37 E7        29.89S
WALKER         FAIR      49  31  48 E7        29.87S
$$
MNZ012-019>021-037-302200-
   Northeast Minnesota

CITY           SKY/WX    TMP DP  RH WIND       PRES   REMARKS
DULUTH         SUNNY     45  30  55 E15       29.90R
ELY            SUNNY     50  12  22 E8        29.90F
HIBBING        SUNNY     51  23  33 E12       29.88S
EVELETH        SUNNY     53  10  18 E8        29.90S
DULUTH HARBOR  SUNNY     37  34  87 NE17      29.95S
TWO HARBORS    SUNNY     46  34  61 E16       29.92R
SILVER BAY     SUNNY     43  28  56 NE14      29.93S
GRAND MARAIS     N/A     39  32  76 NE9       29.99S
G MARAIS ARPRT SUNNY     43  12  28 NE12      29.95S
$$
MNZ029>031-032-039>041-046>048-054>057-064-302200-
   West Central Minnesota

CITY           SKY/WX    TMP DP  RH WIND       PRES   REMARKS
FERGUS FALLS   MOSUNNY   54  30  40 SE10      29.86S
WHEATON        CLOUDY    48  36  61 E8        29.86F
MORRIS         CLOUDY    48  36  61 NE13      29.84S
ALEXANDRIA     PTSUNNY   50  34  54 E9        29.85S
ELBOW LAKE     PTSUNNY   51  34  51 NE7       29.84F HAZE
WADENA         SUNNY     54  28  37 E10G17    29.84S
GLENWOOD       PTSUNNY   48  36  61 NE12      29.84F
APPLETON       CLOUDY    48  36  61 NE7       29.84S
BENSON         CLOUDY    52  30  43 E10       29.85F
ORTONVILLE     CLOUDY    48  36  61 NE5       29.84S
MADISON        CLOUDY    50  39  66 NE7       29.83F
WILLMAR        PTSUNNY   50  36  57 NE13G18   29.84F
$$
MNZ033>034-036-042>043-049>051-058-059-302200-
   Central Minnesota

CITY           SKY/WX    TMP DP  RH WIND       PRES   REMARKS
ST CLOUD       CLOUDY    49  35  58 NE12G20   29.84F
SAUK CENTRE    CLOUDY    48  34  58 NE9       29.85S
PAYNESVILLE    CLOUDY    47  34  59 NE10      29.84F
AITKIN         SUNNY     55  18  22 NE13G20   29.85S
PINE RIVER     SUNNY     54  32  43 E9G16     29.89S
BRAINERD       PTSUNNY   53  29  39 E9        29.86F
STAPLES        SUNNY     52  27  37 E6G17     29.85S
LONG PRAIRIE   CLOUDY    48  32  53 NE12      29.85F
LITTLE FALLS   CLOUDY    50  32  50 E7        29.86S
LITCHFIELD     CLOUDY    48  36  61 NE9       29.84S
BUFFALO        CLOUDY    47  35  63 N8        29.84S
MAPLE LAKE     CLOUDY    49  37  65 E12       29.85S
HUTCHINSON     CLOUDY    46  38  71 NE13      29.83F
$$
MNZ037-044-045-052-053-302200-
   East Central Minnesota

CITY           SKY/WX    TMP DP  RH WIND       PRES   REMARKS
PRINCETON      CLOUDY    50  34  53 NE7       29.85S
MORA           CLOUDY    48  32  53 E7G18     29.87S
CAMBRIDGE      CLOUDY    52  36  54 NE5       29.83F
RUSH CITY      CLOUDY    49  34  55 E8        29.85F
MOOSE LAKE     CLOUDY    46  30  53 NE9       29.87S
CLOQUET        PTSUNNY   43  27  52 E16       29.90S
MCGREGOR       SUNNY     52  30  43 E12       29.88S
$$
MNZ071>073-080-081-089-090-097-098-302200-
   Southwest Minnesota

CITY           SKY/WX    TMP DP  RH WIND       PRES   REMARKS
MONTEVIDEO     CLOUDY    50  37  62 E13       29.82F
GRANITE FALLS  CLOUDY    49  38  65 N12       29.83F
CANBY          CLOUDY    47  38  69 CALM      29.83F
MARSHALL       CLOUDY    46  37  71 NE15      29.81F
REDWOOD FALLS  CLOUDY    46  36  68 NE8       29.81F
OLIVIA         CLOUDY    50  37  62 E13G20    29.81F
PIPESTONE      CLOUDY    43  36  75 NE14      29.78F
WINDOM         PTSUNNY   39  37  93 NE10      29.79S
WORTHINGTON    CLOUDY    39  36  89 NE16      29.78S
JACKSON          N/A     37  36  93 NE14      29.78S
TRACY          CLOUDY    43  39  86 NE14      29.81S
SLAYTON        CLOUDY    39  37  93 NE12      29.79F
$$
MNZ065>067-074>077-082>085-091>093-302200-
   South Central Minnesota

CITY           SKY/WX    TMP DP  RH WIND       PRES   REMARKS
MANKATO        CLOUDY    41  36  82 NE15      29.80S
NEW ULM        CLOUDY    43  36  75 NE9       29.80F
ST JAMES       CLOUDY    39  37  93 N12       29.80S
FAIRMONT       CLOUDY    39  37  92 NE14      29.77F
GLENCOE        CLOUDY    46  39  77 NE7       29.81F
FARIBAULT      CLOUDY    41  37  87 NE9       29.80S
OWATONNA       CLOUDY    39  36  87 NE13G18   29.78F
WASECA         CLOUDY    39  36  87 NE14G22   29.79S
ALBERT LEA     CLOUDY    37  37 100 NE14G21   29.74F
$$
MNZ078>079-086>088-094>096-302200-
   Southeast Minnesota

CITY           SKY/WX    TMP DP  RH WIND       PRES   REMARKS
ROCHESTER      CLOUDY    38  37  97 NE17      29.75F
RED WING       CLOUDY    45  36  70 E13       29.81R
STANTON        CLOUDY    42  36  79 E10G18    29.80S
DODGE CENTER   CLOUDY    39  36  87 NE14G20   29.76F
WINONA         CLOUDY    41  36  81 E9G18     29.78F
AUSTIN         CLOUDY    39  36  87 NE14G21   29.74S
PRESTON        CLOUDY    37  34  88 NE16      29.73F
$$
ABBREVIATIONS USED IN REMARKS
   TC - TEMPERATURES IN CELSIUS
  WCI - WIND CHILL INDEX
   HX - HEAT INDEX
  VSB - VISIBILITY
$$




USA.gov is the U.S. government's official web portal to all federal, state and local government web resources and services.